Wind_Speed
16 15 15 15 16 16 16 16 17 17 17 16 16 16 16 15 14 15 14 14 13 13 13 13 13 13 13 13 13 13 13 13 13 13 14 14 14 14 14 14 14 14 14 14 14 15 14 14 14
17 17 17 17 17 16 16 16 17 17 18 17 17 17 17 16 16 16 16 15 15 15 15 15 15 15 14 15 15 15 15 14 14 14 14 14 14 14 14 14 14 15 15 15 15 15 15 16 15
17 17 18 18 17 16 16 16 16 17 18 18 18 18 17 16 16 16 17 17 17 17 17 17 16 16 16 16 16 16 16 16 16 16 15 15 15 15 16 16 16 16 16 16 16 17 17 17 17
18 18 18 19 18 16 16 16 16 16 17 18 19 19 18 18 18 17 18 18 18 17 17 17 17 18 18 18 18 17 17 17 17 17 17 16 16 16 16 16 17 17 17 18 18 18 19 19 19
18 19 19 18 19 18 18 18 18 17 17 18 19 19 19 20 20 20 19 19 19 18 18 18 18 19 19 18 18 18 18 19 19 19 18 18 17 18 18 18 18 19 19 19 19 19 19 20 21
19 19 19 19 19 20 20 20 19 19 19 19 19 19 19 20 21 21 21 21 21 21 20 20 20 20 20 20 20 19 19 19 19 19 19 20 20 20 20 20 20 20 20 21 21 21 21 21 22
20 20 20 20 20 21 21 21 20 20 21 20 20 20 20 20 21 21 22 22 22 22 22 21 21 21 21 21 21 21 20 21 21 21 21 21 21 21 21 21 21 21 21 21 22 22 22 22 23
21 22 22 22 22 21 21 22 21 21 22 22 21 21 22 22 22 22 22 23 23 23 23 23 22 22 23 22 22 22 22 22 23 23 23 23 23 23 23 23 22 22 22 22 22 22 23 23 24
23 23 23 23 23 22 23 23 23 23 23 23 22 22 22 23 23 23 23 23 23 23 24 23 23 24 24 24 24 24 24 24 24 24 25 25 25 25 25 24 24 24 24 24 23 24 24 24 25
24 24 23 23 24 24 24 24 24 24 24 23 22 22 22 23 23 23 23 23 23 23 24 24 24 24 25 25 25 25 26 25 25 25 25 26 26 26 26 26 26 26 26 26 26 26 26 26 27
25 24 24 24 24 25 25 25 25 25 24 23 23 23 23 24 24 24 24 24 24 25 25 25 25 25 26 26 26 26 26 27 27 27 27 27 27 27 28 28 28 28 28 28 28 28 28 29 29
25 24 24 24 25 26 26 26 26 26 25 25 25 25 24 25 25 24 24 25 25 26 26 26 26 26 27 27 27 27 27 28 28 28 28 29 29 29 29 29 29 30 30 30 30 30 30 30 30
25 25 25 25 26 26 26 26 26 26 27 27 27 27 27 26 26 26 26 26 27 27 27 27 27 28 28 29 29 28 28 29 29 30 30 30 30 31 31 31 31 31 32 32 33 32 32 32 32
26 27 26 26 26 27 27 27 27 27 27 28 28 28 28 28 27 27 28 28 27 28 29 30 30 30 30 30 30 30 30 30 31 31 32 32 32 33 33 33 33 33 33 33 34 34 33 33 33
27 28 28 27 27 28 28 29 28 28 28 28 29 29 29 29 29 28 28 29 29 29 29 30 30 31 31 31 31 32 31 32 32 32 34 34 34 34 35 35 35 35 35 35 34 34 34 34 34
29 30 30 29 29 29 30 29 29 30 29 29 29 29 29 30 30 30 30 30 30 30 31 31 31 32 32 32 33 33 33 33 34 34 34 35 36 36 36 36 36 36 36 36 36 35 35 35 35
30 31 30 30 31 31 32 31 30 31 31 30 30 30 29 30 30 31 31 31 31 31 32 33 32 33 34 34 34 34 35 35 35 35 36 37 37 37 37 37 37 37 37 37 37 37 37 37 36
31 31 31 31 32 33 34 33 32 32 32 32 31 31 31 31 30 31 31 32 32 33 33 34 34 34 35 35 36 36 37 37 37 37 37 37 38 38 38 38 38 38 38 38 38 38 38 38 37
33 33 33 33 34 35 35 35 34 34 33 33 33 32 32 31 31 32 32 33 33 34 34 34 35 35 35 36 37 37 38 38 38 38 38 38 39 39 40 40 40 39 39 39 39 39 39 38 38
33 34 34 34 34 35 35 36 35 35 35 34 34 33 33 32 32 33 33 33 34 35 35 35 35 36 36 36 37 38 39 40 40 40 39 39 40 40 41 42 42 41 41 41 41 40 40 40 39
33 34 34 34 34 35 36 36 35 34 34 34 34 34 34 34 34 34 34 34 35 35 35 36 37 37 37 38 39 40 40 40 41 41 41 41 41 41 42 43 43 43 43 42 42 42 41 41 41
33 33 34 34 34 35 35 36 34 33 33 33 34 34 34 34 35 35 35 35 35 36 36 37 37 38 38 40 40 40 40 40 40 41 42 42 42 42 42 43 44 44 44 44 43 43 42 42 42
33 33 33 34 35 35 35 36 34 32 32 32 33 34 35 35 36 36 35 36 36 36 37 38 38 39 39 40 40 41 41 41 41 42 42 43 43 43 43 43 44 45 44 44 44 43 43 42 42
32 32 33 33 33 36 35 35 33 32 32 32 33 34 35 35 36 36 37 37 37 37 38 38 39 39 39 39 39 40 41 41 42 42 42 43 43 43 43 43 44 44 45 45 45 45 45 44 44
30 31 31 32 32 34 33 35 32 31 31 32 32 33 35 36 36 37 37 37 38 38 38 39 39 40 40 39 39 39 40 40 41 42 42 42 42 43 43 43 43 43 44 45 45 45 46 45 45
29 29 29 31 31 31 32 33 32 31 31 32 33 33 34 35 36 37 37 37 38 39 39 40 40 40 40 40 39 39 40 40 40 41 41 42 42 41 42 42 42 43 43 45 45 46 46 46 46
28 28 29 30 31 32 32 32 32 31 32 33 33 34 35 35 36 37 37 38 39 39 40 40 40 40 40 40 39 39 40 40 40 40 41 41 41 40 40 40 41 41 41 43 44 45 45 45 46
28 28 28 29 30 31 32 32 32 31 32 32 33 34 35 36 36 36 37 38 39 39 40 40 40 40 39 39 39 39 40 39 39 40 40 40 40 39 38 39 39 40 41 43 43 43 43 44 44
27 27 28 29 30 30 31 32 32 32 33 33 33 34 34 35 36 37 38 38 39 39 40 40 40 39 39 39 39 40 40 39 39 40 39 39 39 39 39 38 38 38 39 41 42 43 43 43 43
29 29 29 30 31 31 31 31 32 33 34 35 35 34 35 35 36 37 38 38 39 39 39 39 39 39 39 39 39 40 40 40 39 40 40 39 39 39 38 38 37 38 38 39 40 41 41 41 41
Wind_Direction
241 241 241 243 242 242 242 242 239 238 238 238 239 241 241 240 241 243 245 246 246 247 247 248 249 249 250 251 253 255 257 258 257 257 258 259 259 257 256 256 258 260 261 263 264 264 265 265 265
243 243 244 246 242 242 244 244 241 239 239 239 241 241 243 243 243 244 245 246 247 248 248 248 250 251 252 252 253 254 256 257 257 257 257 256 256 256 257 258 261 262 263 264 265 264 265 265 265
245 245 246 247 245 243 245 245 245 241 240 241 241 243 244 244 243 243 246 247 249 250 249 249 250 251 252 253 253 254 255 255 256 256 257 257 256 257 259 261 262 263 265 266 266 266 266 266 265
248 248 248 248 247 248 249 248 247 245 243 243 243 243 244 245 245 246 246 246 248 250 250 250 251 251 252 252 252 253 254 254 255 254 255 256 256 258 260 263 264 265 266 267 268 268 267 266 266
250 250 250 249 246 249 251 252 252 251 249 248 247 245 245 246 248 249 249 249 249 251 253 254 253 253 252 251 252 252 253 255 256 255 255 255 257 258 261 262 264 266 268 269 269 268 267 267 266
250 252 253 251 250 251 252 254 255 254 252 250 251 250 249 249 250 251 252 254 254 255 256 255 255 255 254 253 254 253 254 255 256 256 255 256 257 259 262 264 266 269 270 270 270 269 269 269 268
251 252 253 251 251 251 253 255 255 254 255 252 252 254 252 250 251 252 254 255 255 256 256 254 254 255 255 255 255 254 255 256 257 258 257 257 258 260 263 266 267 269 271 270 270 270 270 270 270
251 252 251 250 252 253 254 255 255 253 253 253 253 253 254 253 253 253 254 255 256 256 255 255 255 255 256 256 256 256 256 258 259 260 260 260 260 262 264 266 267 269 270 272 272 271 271 271 271
251 252 252 251 253 253 253 254 255 256 254 253 253 253 254 255 254 254 254 255 256 256 255 255 254 254 255 256 257 257 257 259 260 261 261 261 261 263 265 266 266 267 269 270 272 272 272 272 272
252 253 253 253 253 252 253 253 254 253 254 252 252 252 253 255 255 255 254 254 254 254 255 255 254 254 255 256 257 257 258 259 260 261 261 261 262 263 265 266 267 268 268 270 271 272 273 272 272
255 254 253 253 253 252 252 252 251 251 251 251 252 252 253 255 256 256 255 254 252 252 254 256 256 255 255 256 257 258 259 260 260 262 262 262 262 264 266 267 268 268 269 269 271 272 273 273 272
256 254 253 254 253 252 251 251 251 250 251 252 253 253 254 255 255 255 255 254 253 253 254 255 257 256 257 257 258 259 261 262 262 263 263 263 264 265 266 268 269 269 269 269 270 271 273 274 274
256 254 253 253 253 252 251 251 251 252 253 253 253 255 256 256 255 255 255 255 254 254 255 256 258 258 258 259 260 261 263 263 264 265 264 264 265 266 268 269 269 270 270 270 270 271 272 274 275
258 256 255 255 254 252 251 251 252 253 254 254 254 256 257 257 256 256 257 257 256 255 256 257 258 259 260 261 261 262 263 264 266 266 265 265 266 266 267 269 270 270 270 270 270 270 271 272 273
259 257 256 256 255 253 253 252 253 254 256 256 256 256 257 257 257 257 257 257 257 256 258 258 259 261 261 262 264 264 264 266 267 268 267 266 266 266 267 268 269 269 269 270 270 270 270 270 272
260 258 257 257 256 254 254 253 253 255 256 257 257 257 257 257 257 257 257 258 258 258 259 261 261 262 263 264 265 265 265 266 267 268 268 267 267 266 266 267 268 269 269 269 270 270 269 270 271
260 259 259 258 257 255 255 254 254 255 255 256 256 257 257 258 258 257 257 258 259 260 261 262 262 263 263 264 264 265 267 267 268 268 268 267 267 266 266 266 268 268 269 269 269 270 270 270 270
262 261 260 259 258 256 255 254 253 254 255 256 256 257 257 257 258 258 258 259 260 261 261 262 263 263 264 264 264 266 267 268 268 269 270 268 266 266 266 266 267 268 268 268 269 270 270 270 270
261 261 261 260 259 257 256 255 254 254 255 257 257 257 257 257 258 258 258 260 261 262 262 262 264 264 265 265 266 267 268 268 268 269 270 269 267 265 265 266 267 268 268 268 268 268 269 269 269
260 260 260 260 259 258 257 257 256 256 257 258 258 257 256 257 257 258 260 261 262 264 264 265 265 266 266 267 268 268 268 268 268 268 269 269 269 267 266 266 266 267 267 267 268 268 268 268 269
258 260 261 262 261 259 259 258 257 257 258 258 258 257 257 257 259 260 262 262 263 265 266 267 267 267 267 268 270 270 270 270 270 269 270 269 268 268 268 267 266 266 266 266 267 267 267 267 268
258 259 260 261 261 259 260 261 258 258 259 259 259 259 259 259 260 262 263 263 264 266 268 268 268 269 269 270 271 272 272 271 271 270 270 269 268 268 267 266 266 266 265 265 265 266 267 267 267
259 260 261 261 262 260 260 262 260 259 259 260 260 261 261 261 262 263 264 264 266 267 268 269 269 270 271 272 272 272 272 271 271 271 270 269 269 267 267 267 266 266 265 265 265 265 266 267 266
260 261 262 262 263 263 261 264 263 262 262 262 263 263 263 262 263 264 264 265 266 267 268 269 270 271 272 273 273 273 272 271 271 272 271 271 269 268 267 267 266 266 265 264 265 266 266 266 266
259 261 263 263 264 265 265 265 266 265 265 265 265 264 263 262 263 264 265 266 266 267 269 270 271 273 273 273 273 273 273 272 271 271 271 271 270 268 267 266 266 266 265 265 265 265 266 266 266
258 261 263 265 266 267 267 267 267 267 266 267 267 266 265 264 264 264 265 267 268 269 269 270 272 273 272 272 272 272 272 273 272 271 270 270 270 268 267 265 265 265 266 265 264 265 265 265 266
258 260 262 265 268 270 270 270 267 267 266 267 268 268 266 264 264 265 266 267 268 269 270 272 273 272 271 271 270 270 272 272 272 271 271 270 269 267 266 265 266 266 266 265 265 265 265 265 265
261 263 263 264 268 272 273 272 272 268 267 269 270 270 268 266 265 266 267 268 269 270 271 272 272 271 270 270 271 271 272 273 272 272 271 271 269 267 266 266 266 267 266 267 266 266 266 266 265
262 264 264 264 266 272 275 275 273 272 271 271 271 270 270 269 268 267 267 268 269 270 271 271 271 270 269 270 271 272 273 273 273 272 272 271 269 267 267 267 267 268 269 268 266 266 266 266 267
263 265 265 265 265 269 274 277 276 275 273 272 271 271 270 270 269 269 269 269 270 270 270 270 270 268 268 270 271 271 273 273 273 271 270 270 268 267 268 268 268 268 268 267 266 266 266 267 267
Height
5824 5825 5827 5828 5829 5829 5830 5831 5832 5833 5834 5835 5835 5836 5838 5840 5841 5844 5843 5842 5842 5843 5843 5844 5844 5845 5846 5846 5847 5848 5848 5848 5848 5848 5849 5849 5849 5849 5849 5849 5850 5850 5850 5850 5850 5850 5850 5850 5851
5821 5823 5824 5825 5825 5826 5828 5828 5829 5830 5831 5831 5832 5833 5834 5836 5837 5838 5838 5839 5839 5840 5840 5841 5842 5842 5843 5843 5844 5845 5845 5846 5846 5846 5846 5846 5846 5846 5846 5847 5847 5847 5847 5847 5847 5847 5847 5848 5848
5819 5820 5821 5821 5822 5823 5824 5825 5826 5826 5827 5828 5829 5830 5832 5833 5834 5834 5835 5836 5836 5837 5837 5838 5838 5839 5840 5840 5841 5842 5842 5843 5843 5843 5843 5843 5843 5843 5843 5844 5844 5844 5844 5844 5844 5844 5844 5844 5845
5816 5817 5818 5819 5819 5820 5821 5821 5822 5822 5823 5824 5825 5827 5828 5829 5830 5831 5831 5832 5833 5833 5834 5834 5835 5836 5836 5837 5838 5838 5839 5839 5840 5840 5840 5840 5840 5840 5840 5840 5841 5841 5841 5841 5840 5840 5840 5841 5841
5812 5813 5814 5814 5815 5816 5817 5817 5818 5819 5819 5820 5822 5823 5824 5825 5826 5827 5827 5828 5829 5830 5830 5830 5831 5832 5833 5833 5834 5835 5835 5836 5836 5836 5836 5837 5837 5837 5837 5837 5837 5837 5837 5837 5836 5836 5836 5836 5837
5809 5809 5810 5810 5812 5813 5813 5813 5814 5815 5815 5816 5817 5818 5819 5821 5822 5822 5823 5824 5825 5826 5826 5827 5827 5828 5829 5829 5830 5831 5831 5832 5832 5832 5833 5833 5833 5833 5833 5833 5833 5833 5833 5832 5832 5832 5832 5832 5832
5805 5805 5806 5807 5808 5808 5809 5809 5810 5811 5811 5812 5813 5814 5815 5816 5817 5818 5818 5819 5820 5821 5822 5822 5823 5824 5824 5825 5826 5826 5827 5828 5828 5828 5828 5829 5829 5829 5829 5829 5829 5829 5828 5828 5828 5827 5828 5828 5828
5800 5801 5801 5802 5803 5804 5805 5804 5805 5806 5806 5807 5808 5809 5810 5811 5812 5813 5814 5814 5815 5816 5817 5818 5819 5819 5820 5820 5821 5822 5822 5823 5823 5823 5824 5824 5824 5824 5825 5825 5824 5824 5824 5823 5823 5823 5823 5823 5823
5794 5796 5796 5797 5798 5799 5799 5799 5800 5800 5801 5801 5802 5803 5804 5805 5806 5807 5808 5809 5810 5811 5812 5813 5813 5814 5815 5815 5816 5817 5817 5818 5818 5818 5818 5819 5819 5819 5819 5820 5820 5820 5819 5819 5819 5818 5818 5818 5818
5789 5790 5792 5792 5793 5794 5794 5794 5794 5795 5795 5796 5797 5798 5798 5799 5800 5802 5803 5804 5805 5806 5807 5808 5808 5809 5810 5810 5811 5811 5812 5812 5812 5812 5813 5813 5813 5814 5814 5814 5814 5814 5814 5814 5813 5813 5813 5813 5812
5783 5784 5786 5786 5786 5787 5787 5787 5788 5789 5790 5791 5792 5793 5793 5794 5795 5796 5797 5798 5799 5801 5801 5802 5803 5803 5804 5804 5805 5805 5806 5806 5807 5807 5807 5807 5807 5808 5808 5808 5808 5808 5808 5808 5808 5807 5807 5806 5806
5777 5778 5779 5780 5780 5781 5781 5781 5782 5783 5784 5785 5786 5787 5787 5788 5789 5790 5791 5792 5793 5795 5795 5796 5797 5798 5798 5799 5799 5799 5800 5800 5800 5800 5801 5801 5801 5801 5802 5802 5802 5802 5802 5802 5801 5801 5800 5800 5799
5771 5772 5773 5773 5774 5774 5775 5775 5776 5777 5778 5779 5780 5780 5781 5782 5783 5784 5785 5786 5787 5788 5789 5790 5791 5791 5792 5792 5793 5793 5793 5794 5794 5794 5794 5794 5794 5795 5795 5795 5795 5795 5794 5794 5794 5794 5794 5793 5792
5764 5765 5766 5767 5767 5767 5768 5769 5770 5772 5772 5772 5773 5774 5775 5775 5776 5777 5778 5779 5780 5782 5782 5783 5784 5784 5785 5785 5786 5786 5786 5787 5787 5786 5787 5787 5787 5787 5788 5788 5788 5787 5787 5787 5786 5786 5786 5786 5785
5757 5758 5759 5760 5760 5761 5762 5763 5764 5765 5765 5766 5766 5767 5768 5768 5769 5770 5771 5772 5773 5775 5775 5776 5777 5777 5777 5778 5778 5778 5779 5779 5779 5779 5779 5779 5779 5779 5780 5780 5780 5780 5779 5779 5778 5778 5778 5778 5777
5750 5750 5752 5754 5753 5753 5755 5756 5758 5757 5758 5759 5759 5760 5760 5761 5762 5763 5764 5765 5766 5767 5768 5768 5769 5769 5770 5770 5770 5770 5770 5771 5771 5771 5771 5770 5771 5771 5771 5771 5772 5771 5771 5771 5771 5770 5770 5770 5769
5741 5742 5744 5745 5745 5746 5746 5748 5750 5749 5750 5751 5752 5752 5753 5753 5754 5755 5756 5757 5758 5759 5760 5760 5761 5761 5761 5762 5762 5762 5762 5762 5762 5762 5762 5762 5762 5762 5762 5762 5763 5762 5763 5763 5762 5762 5762 5761 5761
5734 5734 5735 5736 5736 5737 5738 5740 5742 5741 5742 5743 5744 5744 5745 5746 5747 5748 5749 5749 5750 5751 5751 5752 5752 5753 5753 5753 5753 5753 5753 5753 5752 5752 5752 5752 5752 5752 5753 5753 5753 5753 5754 5754 5754 5753 5753 5753 5752
5724 5725 5726 5727 5727 5728 5729 5730 5732 5733 5734 5735 5735 5736 5737 5738 5739 5739 5740 5741 5741 5742 5743 5743 5744 5744 5744 5744 5744 5744 5744 5743 5743 5742 5742 5742 5742 5742 5743 5743 5743 5744 5744 5744 5744 5744 5744 5744 5743
5715 5716 5717 5718 5718 5719 5720 5721 5723 5724 5725 5726 5726 5727 5729 5730 5730 5731 5731 5732 5733 5733 5733 5734 5734 5734 5734 5734 5734 5733 5733 5733 5733 5732 5732 5732 5732 5732 5732 5733 5733 5734 5734 5734 5734 5734 5734 5734 5734
5706 5707 5708 5709 5709 5709 5710 5712 5714 5715 5716 5717 5717 5718 5719 5721 5721 5722 5723 5723 5724 5724 5724 5724 5724 5724 5724 5724 5723 5722 5722 5722 5722 5722 5721 5721 5721 5721 5721 5722 5722 5723 5723 5724 5724 5724 5724 5724 5724
5697 5699 5699 5699 5699 5700 5701 5701 5705 5706 5707 5708 5708 5709 5710 5711 5712 5712 5713 5713 5714 5714 5714 5714 5714 5714 5713 5713 5712 5711 5711 5711 5711 5710 5710 5709 5709 5709 5710 5710 5711 5711 5712 5712 5713 5713 5714 5714 5714
5689 5690 5690 5690 5690 5691 5691 5691 5695 5697 5698 5699 5700 5700 5701 5702 5702 5703 5703 5704 5704 5704 5704 5704 5703 5703 5702 5702 5701 5700 5700 5699 5699 5698 5698 5697 5697 5697 5697 5698 5698 5699 5700 5701 5701 5702 5702 5703 5703
5680 5681 5681 5681 5681 5681 5683 5682 5685 5688 5689 5690 5691 5691 5691 5691 5692 5692 5693 5693 5693 5693 5693 5693 5692 5692 5692 5691 5690 5689 5688 5687 5687 5686 5686 5685 5685 5685 5685 5685 5686 5687 5688 5689 5689 5690 5691 5691 5692
5672 5672 5672 5671 5671 5672 5674 5673 5677 5679 5680 5681 5681 5681 5681 5681 5682 5682 5682 5683 5683 5682 5682 5682 5681 5681 5680 5679 5678 5677 5677 5676 5675 5675 5674 5674 5673 5673 5673 5674 5674 5675 5675 5676 5677 5678 5679 5679 5680
5663 5664 5664 5663 5663 5664 5665 5665 5669 5670 5670 5670 5671 5671 5671 5671 5671 5671 5672 5672 5672 5672 5671 5671 5670 5669 5669 5668 5667 5666 5665 5665 5664 5663 5662 5662 5662 5662 5662 5662 5663 5663 5663 5664 5665 5666 5667 5667 5668
5655 5656 5656 5656 5655 5655 5656 5657 5660 5661 5661 5661 5661 5661 5661 5661 5661 5661 5661 5661 5661 5660 5660 5659 5659 5658 5657 5657 5656 5655 5654 5654 5653 5652 5651 5651 5650 5650 5650 5651 5651 5651 5651 5652 5652 5653 5654 5655 5655
5648 5648 5648 5647 5646 5646 5647 5649 5651 5652 5652 5652 5651 5651 5651 5651 5651 5651 5650 5650 5650 5649 5649 5648 5647 5646 5646 5645 5645 5644 5643 5642 5642 5641 5640 5640 5639 5639 5639 5639 5640 5640 5640 5640 5640 5641 5642 5642 5643
5641 5641 5640 5639 5639 5639 5638 5643 5643 5642 5642 5642 5642 5641 5641 5640 5640 5640 5640 5639 5639 5638 5637 5637 5636 5635 5635 5634 5634 5633 5632 5631 5631 5630 5629 5629 5628 5628 5628 5628 5629 5629 5628 5628 5628 5629 5630 5630 5631
5632 5633 5633 5633 5632 5631 5630 5635 5634 5633 5632 5632 5632 5631 5630 5630 5630 5629 5629 5629 5628 5627 5627 5625 5625 5624 5624 5623 5623 5622 5621 5620 5619 5619 5618 5618 5618 5618 5618 5618 5618 5618 5618 5617 5617 5618 5619 5619 5620